Starlink 35855

operational
NORAD ID: 66891 Int'l Des: 2025-283 Owner: SPXS Country: US Constellation: starlink
LEOCIRCULAR

Über Starlink 35855

Beschreibung wird geladen...

Live-Position

3D-Globus wird geladen...

Nächste Überflüge

Höhenverlauf

Altitude vs Time

uPlot chart will show altitude changes over time

Zweizeiliger Elementsatz

1 66891U 25283P 25347.58336806 -.01314177 50738-3 -36860-2 0 9997
2 66891 53.1553 69.6367 0000891 60.1247 323.0357 15.92960500 2562
Epoch: 13. Dez. 2025 • Age: 19 hours

Aktueller Status

Höhe 300.1 km
Geschwindigkeit 7.73 km/s
Subsatellitenpunkt 22.08°N, 15.52°E
Startdatum 4. Dez. 2025
Alter 9 days
Typ internet

Technische Details

Klassifizierung Payload
Masse 575.00 kg
Trockenmasse 530.00 kg
Gesamtmasse 575.00 kg
Länge 0.30 m
Durchmesser 4.10 m
Spannweite 29.00 m
Form Box + pan
Hersteller SPXS
Bus-Typ Starlink V2MO
Phasenstatus In Orbit
Besitzer/Staat SPXS/US

Große Konstellationen

Loading constellations...